Regional Weather Roundup
Issued by NWS Charleston, SC

Current Version | Previous Version | Graphics & Text | Print | Product List | Glossary On
Versions: 1 2 3 4 5 6 7 8 9 10 11 12 13 14 15 16 17 18 19 20 21 22 23 24 25 26 27 28 29 30 31 32 33 34 35 36 37 38 39 40 41 42 43 44 45 46 47 48 49 50
000
ASUS42 KCHS 212312
RWRCHS

Regional Weather Roundup
National Weather Service Charleston SC
700 PM EDT MON MAY 21 2018

NOTE: "fair" indicates few or no clouds below 12,000 feet with no
significant weather and/or obstructions to visibility.

Not all stations are quality controlled. Use data with caution,
especially dewpoint observations.

SCZ027-030-031-034>040-042>050-220000-
...Southeast South Carolina...

CITY           SKY/WX    TMP DP  RH WIND       PRES   REMARKS
N Charleston   PTSUNNY   80  69  69 S12       30.12R
Waterfront Prk   N/A     79  72  79 S13       29.95F
Mount Pleasant FAIR      79  72  78 S9        30.12S
Johns Island   CLOUDY    79  72  78 S10       30.12S
Pinopolis        N/A     82  72  69 S5        30.05R
Moncks Corner  FAIR      79  68  69 SE6       30.11S
Summerville    FAIR      81  68  65 SE6       30.12R
Beaufort MCAS  PTSUNNY   80  73  79 S7        30.11S
Beaufort Arpt  FAIR      79  70  73 S6        30.11S
Hilton Head Is MOSUNNY   79  70  73 SE6       30.12S
Walterboro     FAIR      79  70  73 SE8       30.11S
Allendale      FAIR      81  68  65 SE9G16    30.09S

...Southern Midlands and Pee Dee...

CITY           SKY/WX    TMP DP  RH WIND       PRES   REMARKS
Georgetown     FAIR      77  77 100 S9        30.13S
Kingstree      FAIR      79  70  73 SE8       30.11R
Orangeburg     FAIR      81  68  64 S9        30.10S
Barnwell       FAIR      79  70  73 SW5       30.10R
Aiken          FAIR      79  66  65 S8        30.13R
Manning        FAIR      77  64  65 S7        30.10S
Columbia       FAIR      87  64  46 S8        30.07S
Sumter         NOT AVBL
Florence       FAIR      84  67  56 S8        30.09S
Myrtle Beach   FAIR      77  71  82 S10       30.13F
N Myrtle Beach FAIR      77  72  84 S12       30.12S

$$

GAZ063-065-086>088-099>101-113>116-118-119-134>141-150-220000-
...Southeast Georgia...

CITY           SKY/WX    TMP DP  RH WIND       PRES   REMARKS
Savannah Arpt  PTSUNNY   81  68  64 S10       30.10S
Hunter AAF     NOT AVBL
Fort Stewart   NOT AVBL
Statesboro     FAIR      80  68  65 SE8       30.09S
Sylvania       FAIR      82  69  64 SE6       30.10S HAZE
Claxton        FAIR      81  70  69 CALM      30.09S

...CSRA, Central and far Southeast Georgia...

CITY           SKY/WX    TMP DP  RH WIND       PRES   REMARKS
Thomson        FAIR      80  68  67 CALM      30.14S
Augusta-Bush   FAIR      77  67  71 SE5       30.08S
Augusta-Daniel FAIR      79  68  69 S8        30.10S
Swainsboro     LGT RAIN  73  68  83 S5        30.11R
Vidalia        PTSUNNY   77  68  73 CALM      30.09S
Eastman        FAIR      79  63  57 SE9       30.11R
Hazlehurst       N/A     77  68  75 S3        30.08R
Alma           PTSUNNY   78  69  73 SE13      30.08S
Waycross       LGT RAIN  76  72  87 SE6       30.08S
Jesup          NOT AVBL
Baxley         PTSUNNY   73  72  94 SE6       30.08S
Brunswick      CLOUDY    79  70  73 SE8       30.10S
Saint Simons   FAIR      79  73  82 MISG      30.09S

$$

SCZ027-028-034-036>038-045-046-048>050-GAZ119-141-220000-
...Lake and Supplemental Coastal Observations...

STATION/POSITION TIME  TEMP    WIND        PRES    WAVE   SWELL
                       AIR SEA DIR/SP/G            HT/PER HT/PER/DIR
                 (UTC) (F)     (DEG/KT/KT) (MB)    (FT/S) (FT/S/D)
Winyah Bay       2145   78     160/  8     1020.0
Lake Murray      2220   85     160/  2/  4 1017.6F
ACE Basin NERRS  2145   80     140/  3     1020.0
Fort Pulaski     2236   79 79  140/  4/  6 1019.9F
Sapelo Island    2200   82     140/  8     1019.0

$$

ANZ835-935-AMZ111-154-330-350-352-354-370-450-454-472-220000-
...C-MAN and Buoy Observations...

STATION/POSITION TIME  TEMP    WIND        PRES    WAVE   SWELL
                       AIR SEA DIR/SP/G            HT/PER HT/PER/DIR
                 (UTC) (F)     (DEG/KT/KT) (MB)    (FT/S) (FT/S/D)
Buoy 41004       2250      76  170/  8/  8 1020.2F   5/ 8   5/130/ 8
Buoy 41008       2250   76 76  120/  8/  8 1019.0F   4/ 8   3/100/ 8
Folly Beach CMAN 2200   77     150/  9/ 11 1020.8F
Capers Nearshore 2208   78 78  170/  8/ 12 1020.9S
Fripp Nearshore  2208   77 78  140/  8/ 10 1019.6F


STATION/POSITION TIME  TEMP    WIND        PRES    WAVE   SWELL
                       AIR SEA DIR/SP/G            HT/PER HT/PER/DIR
                 (UTC) (F)     (DEG/KT/KT) (MB)    (FT/S) (FT/S/D)
5E St. Marys GA  2300      76                N/A     3/ 9
Frying Pan Buoy  2250   77 76  200/ 10/ 12 1020.5S   4/ 9   3/130/ 9
Buoy 41025       2250   75 74  220/  8/ 10 1020.8R   4/ 9   3/140/ 9
Cape Lookout NC  2200          210/  9/ 11 1020.4R
Buoy 41002       2250      78  160/  6/ 10 1021.9R   4/ 8   3/130/ 8
Buoy 41010       2250   77 79  110/ 14/ 17 1019.7F   6/ 9   5/130/ 9
St Augustine FL  2300   75 77  140/  7/  8 1018.5F


$$



USA.gov is the U.S. government's official web portal to all federal, state and local government web resources and services.